CAPE
348 0 0 818 850 911 640 440 407 264 556 599 598 611 621 627 519 516 444 429 512 335 286 313 219 142 272 13 1 0 0 0 0 0 0 17 268 481 580 374 285 336 429
185 0 0 719 818 656 259 118 56 103 225 135 125 275 366 296 510 468 354 225 135 80 8 6 0 89 329 67 0 0 0 0 0 0 0 0 0 227 487 475 457 584 573
0 83 0 246 455 378 75 16 0 0 5 28 1 0 59 0 0 37 1 0 0 0 0 0 0 97 479 139 54 0 0 0 0 3 0 0 0 4 102 444 575 542 551
1 5 5 11 227 115 42 0 0 0 0 0 0 0 0 0 0 0 0 0 0 0 1 0 0 98 531 190 157 57 0 0 0 0 19 7 0 0 4 102 575 581 406
0 4 39 20 13 1 0 0 0 0 0 0 0 0 0 0 0 1 1 2 1 2 0 0 0 156 459 287 224 28 0 0 10 6 0 5 25 20 0 2 54 502 600
0 105 37 49 6 1 0 0 0 0 0 0 0 0 0 2 8 11 4 4 14 0 0 0 0 145 465 338 187 0 0 2 5 20 10 0 0 7 69 2 1 38 467
0 42 46 17 1 1 0 0 0 1 1 4 30 37 45 161 100 4 0 1 0 0 0 0 18 60 210 208 22 0 0 0 26 27 3 0 0 0 0 196 1 1 2
0 0 0 0 1 1 1 0 0 0 61 101 34 53 98 19 0 0 0 0 0 0 0 0 0 0 5 11 0 0 0 0 16 5 0 0 0 0 0 0 241 178 0
0 0 0 0 0 7 14 37 53 223 315 330 249 25 0 0 0 0 0 0 0 0 0 0 0 0 0 0 0 0 0 0 0 0 0 0 0 0 0 0 0 69 403
0 0 0 0 0 0 121 357 412 370 402 354 37 0 0 0 0 0 0 0 0 0 0 0 0 0 0 0 0 0 0 0 0 0 0 0 0 0 0 0 0 0 1
0 0 0 0 9 213 242 489 483 527 236 0 0 0 0 0 0 0 0 0 0 0 0 0 0 0 0 0 0 0 0 0 0 0 0 0 0 0 0 0 0 0 0
0 36 3 8 26 175 326 354 425 397 69 4 0 0 0 0 0 0 0 0 0 0 0 0 0 0 0 0 0 0 0 0 0 0 0 0 0 0 0 0 0 0 0
27 64 3 14 69 204 100 302 304 189 1 0 0 0 0 0 0 0 0 0 0 0 0 0 0 0 0 0 0 0 0 0 0 0 0 0 0 0 0 0 0 0 0
66 69 60 54 137 249 170 571 188 4 0 0 0 0 0 0 0 0 0 0 0 0 0 0 0 0 0 0 0 0 0 0 0 0 0 0 0 0 0 0 0 0 0
106 130 225 246 419 443 453 428 136 1 0 0 0 0 0 0 0 0 0 0 0 0 0 0 0 0 0 0 0 0 0 0 0 0 0 0 0 0 0 0 0 0 0
155 283 456 501 691 597 511 459 129 0 0 0 0 0 0 0 0 0 0 0 0 0 0 0 0 0 0 0 0 0 0 0 0 0 0 0 0 0 0 0 0 0 1
289 378 674 952 914 815 642 35 1 3 0 0 0 0 0 0 0 0 0 0 0 0 0 0 0 0 0 0 0 0 0 0 0 0 0 0 0 0 0 0 0 0 0
432 514 873 1390 1140 973 474 0 0 0 0 0 0 0 0 0 0 0 0 0 0 0 0 0 0 0 0 0 0 0 0 0 0 0 0 0 0 0 0 0 0 0 0
776 720 890 1439 1114 319 0 0 0 0 0 0 0 0 0 0 0 0 0 0 0 0 0 0 0 0 0 0 0 0 0 0 0 0 0 0 0 0 0 0 0 0 0
1050 1120 984 1229 1147 9 0 0 0 0 0 0 0 0 0 0 0 0 0 0 0 0 0 0 0 0 0 0 0 0 0 0 0 0 0 0 0 0 0 0 0 0 0
1317 839 1341 1212 565 0 0 0 0 0 0 0 0 0 0 0 0 0 0 0 0 0 0 0 0 0 0 0 0 0 0 0 0 0 0 0 0 0 0 0 0 0 0
318 31 1367 1193 401 8 0 0 0 0 0 0 0 0 0 0 0 0 0 0 0 0 0 0 0 0 0 0 0 0 0 0 0 0 0 0 0 0 0 0 0 0 0
207 759 1204 1062 293 25 0 0 0 0 0 0 0 0 0 0 0 0 0 0 0 0 0 0 0 0 0 0 0 0 0 0 0 0 0 0 0 0 0 0 0 0 0
656 1159 1426 1037 314 30 0 0 0 0 0 0 0 0 0 0 0 0 0 0 0 0 0 0 0 0 0 0 0 0 0 0 0 0 0 0 0 0 0 0 0 0 0
1028 1182 1316 931 208 42 0 0 0 0 0 0 0 0 0 0 0 0 0 0 0 0 0 0 0 0 0 0 0 0 0 0 0 0 0 0 0 0 0 0 0 0 0
927 1244 951 660 219 2 0 0 0 0 0 0 0 0 0 0 0 0 0 0 0 0 0 0 0 0 0 0 0 0 0 0 0 0 0 0 0 0 0 0 0 0 0
CIN
-97 0 0 0 0 0 0 0 0 0 0 0 0 0 0 0 0 0 0 -2 0 -3 -9 -7 -28 -29 -8 -34 0 0 0 0 0 0 0 -24 -8 0 0 -7 -2 -1 0
-165 0 0 0 0 0 -8 -31 -72 -32 0 -24 -42 -1 0 -2 0 0 -1 -19 -54 -85 -10 -13 0 -99 -4 -89 0 0 0 0 0 0 0 0 -1 -6 0 0 -1 0 0
0 -207 0 -68 -7 -4 -60 -147 0 0 -8 -36 0 0 -59 0 0 -77 0 0 0 0 0 0 0 -91 -1 -49 -95 0 0 0 0 -9 0 0 0 0 -28 0 0 0 -4
-96 -168 -277 -152 -35 -55 -85 0 0 0 0 0 0 0 0 0 0 0 0 0 0 0 0 0 0 -75 -1 -39 -40 -106 0 0 0 0 -2 -1 0 0 0 -23 0 0 0
0 -152 -223 -223 -184 0 0 0 0 0 0 0 0 0 0 0 0 0 0 0 0 0 0 0 0 -34 -1 -15 -29 -31 0 0 -5 -1 0 -2 -4 -65 0 0 -3 0 0
0 -171 -232 -163 -95 0 0 0 0 0 0 0 0 0 0 0 0 -1 -1 0 0 0 0 0 0 -39 0 -1 -31 -1 0 -4 0 -1 -1 0 0 -1 -51 0 0 -7 0
0 -208 -192 -201 0 0 0 0 0 0 0 -1 -22 -2 -2 -85 -25 -2 0 -1 0 0 0 0 -4 -8 -14 -14 -5 0 0 -3 -2 -3 -1 0 0 0 0 -15 0 0 0
0 0 0 0 0 0 0 0 0 0 -26 -51 -10 -7 -2 -1 0 0 0 0 0 0 0 0 0 0 -2 -5 0 0 0 -8 -1 -1 0 0 0 0 0 0 -7 -3 0
0 0 0 0 0 -153 -85 -54 -45 -23 -18 -17 -31 -20 0 0 0 0 0 0 0 0 0 0 0 0 0 0 0 0 0 0 0 0 0 0 0 0 0 0 0 -3 0
0 0 0 0 0 0 -37 -1 0 -4 -16 -19 -31 0 0 0 0 0 0 0 0 0 0 0 0 0 0 0 0 0 0 0 0 0 0 0 0 0 0 0 0 0 0
0 -1 -1 0 -20 -6 -6 -1 -1 0 -24 0 0 0 0 -1 0 0 0 0 0 0 0 0 0 0 0 0 0 0 0 0 0 0 0 0 0 0 0 0 0 0 0
0 -103 -3 -2 -3 -10 -1 -5 -1 -1 -77 -1 0 0 0 0 0 0 0 0 0 0 0 0 0 0 0 0 0 0 0 0 0 0 0 0 0 0 0 0 0 0 0
-151 -85 -3 -99 -45 -5 -33 -4 -4 -37 0 0 0 0 0 0 0 0 0 0 0 0 0 0 0 0 0 0 0 0 0 0 0 0 0 0 0 0 0 0 0 0 0
-109 -92 -60 -48 -25 -2 -7 -19 -6 -2 0 0 0 0 0 0 0 0 0 0 0 0 0 0 0 0 0 0 0 0 0 0 0 0 0 0 0 0 0 0 0 0 0
-84 -79 -35 -16 -4 -3 -3 -13 -9 -1 0 0 0 0 0 0 0 0 0 0 0 0 0 0 0 0 0 0 0 0 0 0 0 0 0 0 0 0 0 0 0 0 0
-63 -43 -15 -2 -2 -7 -2 -2 -15 0 0 0 0 0 0 0 0 0 0 0 0 0 0 0 0 0 0 0 0 0 0 0 0 0 0 0 0 0 0 0 0 -1 0
-46 -20 -6 -22 -3 -2 -2 -65 -3 -48 0 0 0 0 0 0 0 0 0 0 0 0 0 0 0 0 0 0 0 0 0 0 0 0 0 0 0 0 0 0 0 0 0
-8 -8 -2 -12 -10 -2 -28 0 0 0 0 0 0 0 0 0 0 0 0 0 0 0 0 0 0 0 0 0 0 0 0 0 0 0 0 0 0 0 0 0 0 0 0
-5 -3 -2 -12 -27 -83 0 0 0 0 0 0 0 0 0 0 0 0 0 0 0 0 0 0 0 0 0 0 0 0 0 0 0 0 0 0 0 0 0 0 0 0 0
-3 -5 -22 -56 -8 -93 0 0 0 0 0 0 0 0 0 0 0 0 0 0 0 0 0 0 0 0 0 0 0 0 0 0 0 0 0 0 0 0 0 0 0 0 0
-21 -34 -28 -39 -91 0 0 0 0 0 0 0 0 0 0 0 0 0 0 0 0 0 0 0 0 0 0 0 0 0 0 0 0 0 0 0 0 0 0 0 0 0 0
-180 -192 -25 -20 -120 -89 0 0 0 0 0 0 0 0 0 0 0 0 0 0 0 0 0 0 0 0 0 0 0 0 0 0 0 0 0 0 0 0 0 0 0 0 0
-150 -112 -32 -60 -148 -216 0 0 0 0 0 0 0 0 0 0 0 0 0 0 0 0 0 0 0 0 0 0 0 0 0 0 0 0 0 0 0 0 0 0 0 0 0
-101 -67 -37 -71 -112 -195 0 0 0 0 0 0 0 0 0 0 0 0 0 0 0 0 0 0 0 0 0 0 0 0 0 0 0 0 0 0 0 0 0 0 0 0 0
-62 -48 -26 -51 -112 -173 0 0 0 0 0 0 0 0 0 0 0 0 0 0 0 0 0 0 0 0 0 0 0 0 0 0 0 0 0 0 0 0 0 0 0 0 0
-64 -25 -46 -50 -105 -33 0 0 0 0 0 0 0 0 0 0 0 0 0 0 0 0 0 0 0 0 0 0 0 0 0 0 0 0 0 0 0 0 0 0 0 0 0
Wind_Speed
12 14 14 15 15 16 16 17 17 17 16 16 16 16 16 16 16 17 17 18 20 21 22 22 23 24 25 26 27 27 27 27 26 27 28 27 26 27 25 24 27 28 28
14 13 13 14 15 15 16 16 16 15 15 15 15 15 15 16 16 17 17 18 19 19 20 21 21 23 23 24 26 26 26 26 25 26 26 27 26 26 26 25 25 26 27
13 12 12 12 12 13 14 15 16 15 15 15 14 14 14 15 15 16 17 18 18 19 20 20 20 21 22 22 24 25 25 25 23 22 26 26 26 25 25 25 25 25 24
12 12 12 11 11 12 13 13 14 15 15 15 14 14 14 15 15 16 16 17 18 18 19 19 20 20 20 21 23 24 24 25 25 24 25 26 25 25 24 24 24 24 24
12 12 11 11 11 12 13 14 14 15 15 15 15 14 14 15 15 16 16 17 17 18 19 19 19 20 20 20 22 23 23 23 24 25 25 25 24 25 24 24 23 23 22
11 11 11 11 11 12 12 13 14 14 15 15 15 15 14 15 16 16 17 17 17 18 19 19 19 19 19 19 20 21 22 22 23 24 24 24 24 24 24 24 23 22 22
11 11 11 10 10 11 12 12 13 14 14 14 14 14 15 15 16 17 17 16 17 18 18 20 20 19 19 19 20 20 21 21 22 23 23 24 24 24 24 24 23 22 22
11 11 11 11 10 10 11 12 12 13 14 14 14 14 14 15 15 16 16 16 17 17 18 19 19 19 19 19 19 20 20 21 21 22 22 23 24 23 23 23 23 22 22
10 11 11 12 11 10 11 12 12 13 13 14 14 14 13 14 15 16 16 16 17 17 18 18 18 19 19 19 19 19 20 21 21 21 22 22 23 23 23 22 22 22 22
10 11 12 13 13 12 12 12 12 13 13 14 14 14 14 14 15 15 16 16 17 17 17 18 18 18 19 19 19 19 20 20 20 20 21 23 23 23 23 22 22 22 21
10 12 13 14 14 13 12 11 12 12 12 13 14 13 13 14 14 16 16 16 16 16 17 17 17 17 18 19 20 20 20 20 20 21 22 24 23 23 23 22 22 22 22
9 11 12 13 13 12 12 11 11 11 11 13 13 12 13 14 15 15 15 16 16 16 17 17 17 18 18 19 20 20 20 20 20 21 23 24 23 23 22 22 22 22 21
8 9 10 11 11 11 11 11 11 10 11 12 13 13 13 14 13 14 14 14 15 14 16 16 17 18 19 19 20 20 21 20 20 20 23 23 23 22 22 22 22 22 21
7 8 9 10 10 8 10 10 10 11 11 12 12 13 13 14 13 13 13 13 14 15 16 16 17 18 18 20 20 20 21 21 20 20 22 23 23 23 23 22 21 21 21
5 6 6 6 7 7 7 9 9 10 11 12 12 12 13 13 13 13 12 13 13 14 15 16 17 17 18 19 20 20 20 20 21 20 20 23 23 23 23 23 22 21 21
3 4 4 3 4 3 5 6 8 9 10 11 13 12 12 12 12 12 12 12 13 13 14 15 16 17 18 19 20 20 20 20 21 21 21 20 22 23 23 23 23 22 22
4 4 4 3 1 3 4 9 11 10 10 12 13 12 12 12 11 10 11 11 12 13 14 15 16 17 18 19 20 21 21 22 22 22 21 22 20 22 23 23 23 23 24
4 4 2 1 1 4 5 8 8 10 11 14 13 11 11 10 10 10 10 11 11 12 14 15 16 17 19 20 22 22 22 22 23 23 22 22 22 23 22 24 24 24 25
5 3 3 3 3 8 6 5 6 5 8 7 10 10 9 9 8 9 9 10 11 13 14 16 17 19 20 22 23 24 24 25 25 24 22 21 22 24 26 25 26 26 27
6 4 5 9 0 5 6 4 5 6 6 8 9 8 7 8 8 8 10 10 11 13 15 16 18 19 21 23 25 27 25 25 24 25 25 23 24 26 28 29 30 28 27
5 10 13 3 3 5 4 2 3 4 4 7 9 9 7 8 7 8 10 11 12 14 15 17 19 21 22 22 27 27 28 27 25 25 23 23 30 29 29 30 30 30 31
9 7 5 4 5 5 3 2 3 3 5 8 10 9 8 8 8 8 10 12 12 15 16 18 20 22 23 24 27 32 31 29 25 25 23 26 31 30 32 31 33 34 34
14 7 7 5 4 3 2 1 3 4 7 9 9 9 7 7 8 9 11 12 13 15 18 19 20 23 27 29 27 29 33 33 36 34 34 31 33 34 33 34 35 35 35
12 8 6 4 4 3 3 2 3 5 7 9 9 8 8 7 8 10 11 13 16 17 19 22 22 24 27 30 29 26 29 32 39 42 36 39 39 38 37 36 36 37 36
12 8 8 5 5 4 3 2 2 6 8 8 8 8 8 8 9 11 14 16 18 20 22 24 26 26 27 29 30 32 32 34 36 40 45 42 39 38 38 38 38 38 38
8 6 6 6 5 4 3 2 2 5 7 9 9 9 11 11 13 15 17 18 20 21 23 25 26 28 29 30 31 33 35 37 40 42 46 47 46 43 42 41 41 40 39
Wind_Direction
74 85 88 76 70 67 55 49 43 40 29 28 25 23 22 22 20 17 13 14 14 14 16 15 13 16 30 26 23 22 20 23 26 28 27 18 12 14 11 10 29 32 31
87 86 86 78 68 62 56 42 43 38 32 15 11 16 22 20 17 14 13 8 7 9 9 9 12 14 25 31 28 26 22 20 15 27 39 22 11 10 12 13 17 27 30
82 76 79 78 64 56 48 42 41 40 33 26 13 8 9 8 5 1 1 3 4 6 7 8 6 7 22 34 28 26 23 17 2 13 35 24 16 7 9 11 14 19 24
79 75 73 72 64 53 46 42 41 43 40 36 24 13 8 7 6 5 5 6 6 5 6 5 3 4 23 33 27 24 21 16 19 7 14 19 17 7 6 6 9 8 17
71 78 65 67 60 50 48 47 45 45 44 42 38 27 20 18 16 15 12 13 13 10 6 6 7 11 25 25 24 21 17 5 7 27 19 8 5 11 6 5 5 7 5
68 57 66 65 58 53 50 48 46 45 44 43 39 37 33 29 26 23 17 13 15 12 11 7 7 10 18 20 16 14 8 353 18 19 21 15 8 2 5 6 3 2 2
71 60 70 66 58 55 51 48 47 46 43 41 47 45 44 33 27 22 17 11 13 11 7 6 6 8 9 12 9 7 359 348 17 16 17 8 5 2 1 360 4 1 359
69 70 73 71 64 57 53 51 48 46 39 32 34 39 41 29 18 13 9 8 7 4 2 2 4 5 6 6 5 3 355 347 10 15 14 10 0 359 357 356 357 0 359
69 72 79 82 72 63 60 55 50 41 30 32 39 35 25 20 15 10 6 4 2 2 3 3 5 7 7 6 3 3 0 355 4 4 1 356 348 355 356 353 351 352 354
77 77 84 86 88 80 71 64 52 43 39 39 35 30 27 23 18 15 13 7 6 5 4 4 5 7 8 6 3 2 358 1 360 2 0 349 345 347 348 348 349 347 348
84 92 94 94 93 83 77 63 53 44 40 34 33 36 44 23 18 8 10 10 10 9 8 8 9 10 17 12 3 357 357 359 358 357 353 345 346 344 344 345 344 344 345
92 96 95 98 92 83 86 70 55 55 47 31 32 38 20 17 14 17 16 16 18 21 20 16 12 8 6 3 3 359 358 358 0 360 350 344 345 345 344 343 344 344 342
101 93 96 91 90 89 76 72 56 46 16 16 29 21 20 18 27 19 22 19 17 19 14 14 10 8 9 7 3 3 359 359 358 0 352 350 349 347 344 341 340 342 342
113 104 99 94 93 68 67 41 46 35 21 13 16 20 16 10 17 24 22 22 20 17 14 12 11 9 7 3 0 359 359 358 357 358 357 354 353 350 348 345 341 341 340
127 119 109 98 92 91 46 46 46 22 18 8 1 6 8 8 14 22 28 23 19 17 13 11 8 5 0 359 357 357 357 357 356 355 358 354 352 350 348 348 348 344 341
153 138 130 112 85 54 29 34 14 17 14 3 355 356 8 5 13 23 25 24 21 16 10 6 4 359 356 353 353 352 352 353 351 352 350 355 354 351 349 347 345 343 341
183 166 150 139 73 70 14 347 344 4 3 349 350 352 358 0 15 24 23 21 18 14 9 2 358 355 353 350 347 344 345 341 342 341 342 340 347 348 345 342 339 336 334
232 197 194 37 323 344 8 351 348 347 358 338 343 354 358 2 17 19 17 14 13 8 3 357 353 350 346 342 338 337 335 334 332 334 335 333 334 332 338 335 333 332 329
235 212 265 304 288 313 347 4 353 3 346 358 345 348 0 7 23 21 14 10 7 358 353 349 346 341 339 336 333 330 328 326 326 326 328 330 329 328 325 328 326 324 322
226 257 296 290 248 322 339 1 2 14 12 359 9 16 4 358 9 11 3 359 357 351 347 344 339 338 335 332 329 326 326 324 323 322 320 323 324 323 321 320 319 318 321
210 291 292 230 235 295 320 342 357 3 28 358 351 347 354 355 5 359 354 352 347 342 339 337 334 331 329 331 327 325 322 321 321 320 320 319 318 319 318 316 316 315 312
238 277 227 217 257 282 297 314 351 357 352 349 349 351 349 349 351 349 346 341 339 335 332 330 329 327 326 326 323 320 319 318 321 321 320 315 316 317 316 314 312 311 309
269 249 237 227 242 251 243 309 339 352 344 341 344 345 346 347 345 341 337 334 332 330 326 326 326 323 321 320 319 319 316 313 313 313 314 313 313 312 311 311 311 309 308
262 262 245 234 237 251 201 270 299 315 327 332 342 348 348 343 338 333 330 329 326 325 324 322 322 320 319 317 318 315 314 312 309 307 309 309 309 308 309 308 307 307 307
260 254 256 256 261 257 216 273 281 316 334 348 354 349 346 340 331 329 327 325 322 321 320 320 318 317 317 315 315 314 311 311 309 307 305 306 306 306 306 306 305 304 303
256 257 263 257 262 263 237 277 295 325 339 341 344 342 338 335 333 328 326 324 322 322 320 320 319 317 316 315 314 313 311 309 308 307 305 304 304 305 304 303 302 301 301